Flag Weather past 2 weeks in Førde, Norway

Now
32 °F

Clear.


Feels Like: 32 °F
Forecast: 33 / 41 °F
Wind: No wind

Location: Forde / Bringeland

Current Time: Nov 26, 2014 at 6:55:37 AM

Latest Report: Nov 26, 2014 at 5:50 AM


Visibility: 10 mi

Pressure: 30.21 "Hg

Humidity: 87%

Dew point: 28 °F

Location of FørdeLocation

Historic Weather in Førde — Graph

°F

Førde temperature yesterday

Maximum temperature yesterday: 41 °F (at 5:50 AM)
Minimum temperature yesterday: 32 °F (at 10:20 PM)
Average temperature yesterday: 37 °F

Past Weeks' High & Low Weather Summary

 TemperatureHumidityPressure
High50 °F (Nov 12, 10:20 PM)100% (Nov 10, 10:20 PM)30.42 "Hg (Nov 10, 10:20 PM)
Low30 °F (Nov 20, 7:50 PM)37% (Nov 17, 11:50 AM)29.62 "Hg (Nov 10, 10:20 PM)
Average40 °F72%30.07 "Hg
* Reported Nov 10 10:20 PM — Nov 25 10:50 PM, Førde, Weather by CustomWeather, © 2014

Note: Actual official high and low records may vary slightly from our data, if they occured in-between our weather recording intervals... More about our weather records

Advertising

Førde weather history for previous 24 hours

 ConditionsComfort  
Time TempWeatherWind HumidityBarometerVisibility
10:50 PM
Nov 25
32 °FPassing clouds.3 mph100%30.27 "HgN/A
10:20 PM32 °FChilly.3 mph100%30.27 "HgN/A
9:50 PM34 °FChilly.2 mph93%30.27 "HgN/A
9:20 PM34 °FChilly.2 mph93%30.27 "HgN/A
8:50 PM34 °FPassing clouds.3 mph93%30.24 "HgN/A
7:50 PM36 °FFog.3 mph93%30.24 "HgN/A
7:20 PM34 °FFog.6 mph100%30.24 "Hg1 mi
6:50 PM34 °FFog.2 mph100%30.24 "HgN/A
6:20 PM34 °FFog.3 mph100%30.24 "HgN/A
5:50 PM34 °FPassing clouds.5 mph100%30.21 "HgN/A
5:20 PM36 °FPassing clouds.3 mph100%30.21 "HgN/A
4:50 PM37 °FDrizzle. Overcast.2 mph93%30.21 "HgN/A
4:20 PM36 °FChilly.5 mph100%30.21 "HgN/A
3:50 PM37 °FChilly.5 mph93%30.21 "HgN/A
3:20 PM37 °FChilly.2 mph93%30.18 "HgN/A
2:50 PM39 °FChilly.No wind93%30.18 "HgN/A
2:20 PM39 °FFog.No wind93%30.18 "HgN/A
12:50 PM41 °FFog.5 mph93%30.18 "HgN/A
11:50 AM41 °FLight fog.3 mph93%30.15 "HgN/A
10:20 AM41 °FSleet. Broken clouds.1 mph93%30.12 "Hg4 mi
8:50 AM41 °FPartly cloudy.3 mph93%30.09 "Hg1 mi
8:20 AM41 °FLight rain. Partly cloudy.3 mph93%30.09 "HgN/A
7:20 AM41 °FSprinkles. Partly cloudy.7 mph93%30.07 "HgN/A
6:50 AM41 °FSprinkles. Partly cloudy.3 mph93%30.04 "HgN/A
6:20 AM41 °FSprinkles. Partly cloudy.3 mph93%30.04 "HgN/A
Weather by CustomWeather, © 2014

See weather overviewHow to use our weather pages